Regional Weather Roundup
Issued by NWS Newport/Morehead, NC

Current Version | Previous Version | Graphics & Text | Print | Product List | Glossary Off
Versions: 1 2 3 4 5 6 7 8 9 10 11 12 13 14 15 16 17 18 19 20 21 22 23 24 25 26 27 28 29 30 31 32 33 34 35 36 37 38 39 40 41 42 43 44 45 46 47 48 49 50

000
ASUS42 KMHX 300725
RWRMHX
WEATHER ROUNDUP FOR EASTERN NORTH CAROLINA
NATIONAL WEATHER SERVICE NEWPORT/MOREHEAD CITY NC
300 AM EDT SAT JUL 30 2016

NOTE: "FAIR" INDICATES FEW OR NO CLOUDS BELOW 12,000 FEET
WITH NO SIGNIFICANT WEATHER AND/OR OBSTRUCTIONS TO VISIBILITY

NCZ015>017-031-032-045>047-102-103-300800-
NORTH COAST

CITY           SKY/WX    TMP DP  RH WIND       PRES   REMARKS
EDENTON        CLEAR    N/A N/A N/A CALM      29.95S
ELIZABETH CITY CLEAR     75  74  96 CALM      29.94F
KITTY HAWK     SUNNY     75  75 100 CALM      29.93F
MANTEO           N/A     75  75 100 CALM      29.94F

$$

NCZ045>047-081-094-103-104-300800-
CENTRAL COAST

CITY           SKY/WX    TMP DP  RH WIND       PRES   REMARKS
FRISCO         CLEAR     78  75  90 CALM      29.94S

$$

NCZ095-097-098-100-101-300800-
SOUTHERN COAST

CITY           SKY/WX    TMP DP  RH WIND       PRES   REMARKS
BEAUFORT       CLEAR     81  79  94 CALM      29.93F
CEDAR ISLAND   NOT AVBL
JACKSONVILLE   MOCLDY    79  76  90 SW5       29.93F
PINEY ISLAND   NOT AVBL
WILMINGTON     CLOUDY    80  73  79 CALM      29.93F


$$

NCZ011>013-027>030-043-044-078>080-089-090>093-098-300800-
COASTAL PLAIN

CITY           SKY/WX    TMP DP  RH WIND       PRES   REMARKS
AHOSKIE        CLEAR     72  71  98 CALM      29.94F
CLINTON        PTCLDY    76  74  93 CALM      29.93F
ELIZABETHTOWN  MOCLDY    79  76  90 CALM      29.93F
GOLDSBORO      CLEAR     76  76 100 E3        29.92F
GREENVILLE     CLEAR     77  75  94 CALM      29.96S
HAVELOCK       CLEAR     78  76  93 SE3       29.94F
KENANSVILLE    NOT AVBL
KINSTON        CLEAR     75  73  92 CALM      29.94F
NEW BERN       CLEAR     77  75  93 CALM      29.95F
RICHLANDS      CLOUDY    76  74  93 CALM      29.94F
ROCKY MOUNT    CLEAR     73  73 100 CALM      29.94F
WASHINGTON     CLEAR     76  73  93 CALM      29.94F
WHITEVILLE     CLOUDY    78  76  93 CALM      29.93S

$$

AMZ130-135-150-152-154-156-158-170-250-252-270-ANZ085-086-088-633-658-670-300800-
MARINE OBSERVATIONS

STATION/POSITION TIME  TEMP    WIND        PRES    WAVE   SWELL
                       AIR SEA DIR/SP/G            HT/PER HT/PER
                 (UTC) (F)     (DEG/KT/KT) (MB)    (FT/S) (FT/S)
CHESAPEAKE LIGHT NOT AVBL
64 E VA BEACH    0550   80 83   70/  4/  6 1013.6    2/ 6   2/ 6
DUCK             0700   79 70  160/  3/  4 1013.1
2 E DUCK         0611      78                N/A     1/ 8
OREGON INLET     0700   78 76   10/  2/  3 1013.5
13E OREGON INLT  0600      79                N/A     2/ 5   2/ 5
HATTERAS CG      0700   81 83   CALM  /  1 1013.3
DIAMOND BUOY     0550   84 85  230/  4/  4 1013.9    3/ 4   3/ 4
CAPE LOOKOUT     0700   82     250/  6/  7 1013.6
BEAUFORT LAB     0700   83 83   CALM  /  1 1013.0
30 SE NEW RVR IN 0708   84 85  240/ 14/ 16 1013.7
30 SE NEW RVR IN 0625      85                N/A     4/ 6
27 SE WRIGHTSVLE 0708   84 84  240/ 12/ 16 1013.8
5 SE WRIGHTSVLE  0608   81 80  280/  4/  6 1014.8
225 S CAPE HAT   0550   84 85  210/  8/ 10 1016.3    3/ 7   3/ 7
41 SE CHARLESTON 0550   86 86  220/ 17/ 21 1014.0    3/ 4   2/ 8

$$




USA.gov is the U.S. government's official web portal to all federal, state and local government web resources and services.